User: anonymous
Location: Fort Wayne
(41.1310°N, 85.1290°W)
Time: 00:36:20
(UTC-04:00)
Language:

COSMOS 2406 - Orbit

View from above orbital plane
View from above orbital plane
View from above satellite
View from above satellite

Ground track
Ground track

The orbit data is extracted from the following two-line orbital elements,

1 28352U 04021A   14245.16815986 -.00000254  00000-0 -11409-3 0  3756
2 28352 071.0022 091.9018 0015399 206.3118 288.3839 14.11356628527068
Epoch (UTC): 02 September 2014 04:02:09
Eccentricity: 0.0015399
inclination: 71.0022°
perigee height: 843 km
apogee height: 866 km
right ascension of ascending node: 91.9018°
argument of perigee: 206.3118°
revolutions per day: 14.11356628
mean anomaly at epoch: 288.3839°
orbit number at epoch: 52706

The dashed part of the orbit path shows where the satellite is in the earth's shadow,  

DLR